Wind_Speed
45 45 46 46 47 48 47 45 44 43 42 41 40 39 39 39 38 38 37 35 34 34 34 33 32 31 30 28 27 25 23 21 19 18 17 15 14 13 12 12 10 10 9 8 8 7 6 6 6
45 45 46 47 49 49 46 45 46 45 44 44 43 42 41 41 40 39 38 37 36 35 35 35 34 33 32 31 29 27 25 24 22 20 18 17 16 15 14 13 12 11 10 10 9 8 7 7 7
44 45 46 48 49 48 46 46 47 47 47 46 45 45 44 43 41 40 40 39 38 37 36 36 36 34 34 33 31 30 27 26 24 22 21 19 18 17 16 15 14 13 12 11 11 9 9 8 8
44 45 47 49 49 47 46 47 48 49 49 48 48 48 47 45 43 42 41 41 40 39 38 38 38 36 36 35 33 32 30 28 26 25 23 21 19 18 17 16 16 15 14 13 12 11 10 10 9
44 46 47 48 48 46 47 48 49 50 50 50 50 49 48 47 46 45 43 42 41 40 40 40 40 38 37 36 36 34 32 30 28 27 25 23 21 20 19 18 17 16 15 14 14 13 12 11 11
43 45 46 46 45 44 45 47 49 50 51 51 51 50 49 49 49 47 46 44 43 42 42 41 42 41 40 38 37 36 35 32 31 29 27 25 23 22 20 19 18 18 17 16 15 14 13 12 12
42 43 43 43 43 43 44 46 49 50 51 51 51 52 50 50 50 49 48 47 45 43 42 42 43 43 42 40 39 38 37 35 33 31 30 28 26 24 22 21 20 19 19 18 17 16 15 14 13
39 40 39 40 41 42 43 46 47 49 49 51 52 53 52 51 51 51 48 46 46 45 44 43 43 45 45 43 41 40 39 37 36 34 32 30 28 26 25 23 22 21 20 19 19 18 17 16 15
36 37 37 37 39 40 41 44 46 48 49 50 52 53 52 52 52 51 50 48 46 46 46 46 44 45 47 46 44 43 41 39 38 36 35 32 30 28 27 25 24 23 22 21 20 19 18 17 17
33 33 33 35 37 38 38 41 44 45 47 48 50 51 52 52 52 51 51 52 49 47 48 47 46 46 48 48 46 45 44 42 40 38 37 35 33 31 29 27 26 25 24 22 22 21 20 19 18
30 30 31 32 34 35 36 38 40 42 44 46 48 49 51 50 51 51 51 52 50 49 50 49 49 49 48 49 47 46 45 44 42 40 39 37 35 33 31 29 28 27 26 24 23 22 22 21 20
28 28 28 29 30 32 34 35 37 39 41 44 46 48 50 49 50 49 50 51 52 51 51 51 51 51 51 50 49 47 46 46 44 42 41 39 37 35 33 32 30 29 28 27 25 25 24 23 22
25 26 26 28 29 29 30 32 35 37 38 42 44 46 49 49 50 49 50 51 51 52 52 52 52 52 53 53 51 49 47 47 45 44 42 41 39 37 35 33 32 31 30 29 27 26 25 25 24
22 24 25 27 27 26 28 29 33 34 37 40 42 44 47 48 49 51 51 51 51 53 53 53 53 53 54 54 52 50 48 47 47 46 44 43 41 39 38 36 34 33 32 31 29 28 27 26 25
21 22 23 24 24 24 26 27 28 32 36 39 41 43 46 47 48 49 50 52 53 55 55 54 53 54 56 55 54 53 50 49 49 48 47 45 43 42 40 38 37 35 34 33 31 30 29 28 27
19 20 20 20 20 20 23 24 25 29 33 36 39 43 44 45 45 49 51 53 56 57 57 56 54 54 56 57 56 54 52 50 50 49 48 47 46 44 43 41 39 37 36 34 33 31 31 30 29
16 16 16 16 16 17 19 19 21 25 29 32 36 39 40 42 41 44 48 51 53 55 57 55 56 54 55 57 57 55 54 52 51 51 51 49 48 46 44 42 40 39 38 36 35 33 32 32 31
12 12 11 12 13 14 15 15 17 21 24 26 31 34 36 37 38 40 43 47 51 52 53 53 54 57 57 57 57 57 55 53 52 52 51 50 49 49 47 44 42 41 39 38 37 36 35 34 33
8 7 7 8 10 11 11 10 11 15 17 19 24 28 31 34 35 38 40 44 49 50 52 52 51 53 55 56 57 60 57 55 53 52 53 53 51 50 48 45 44 42 41 40 39 38 37 36 35
5 5 5 5 7 8 7 6 7 11 14 15 18 22 25 28 32 35 37 41 45 48 48 51 51 52 53 54 55 58 58 55 54 52 53 52 51 52 49 48 46 45 44 43 42 41 39 39 37
5 4 4 4 4 4 4 6 8 9 11 12 14 17 20 23 27 32 34 36 40 42 44 46 49 50 51 51 52 55 57 55 53 53 52 52 51 51 49 48 47 47 46 45 44 43 42 41 40
4 3 3 2 2 1 2 2 4 6 8 10 12 14 16 19 23 27 30 34 36 37 39 41 43 45 48 51 51 52 53 54 53 52 52 52 51 49 49 49 49 49 47 46 46 45 44 44 42
2 1 1 1 1 2 1 2 1 5 7 9 10 12 14 16 18 22 26 30 32 34 36 39 40 41 45 48 49 51 52 53 53 53 52 52 52 50 49 51 50 50 49 48 48 47 45 45 44
2 1 1 0 1 1 1 3 3 4 4 6 7 9 11 13 15 17 22 27 28 29 33 37 38 40 43 45 47 49 51 52 52 52 52 52 53 52 51 51 51 51 50 50 50 49 47 46 45
3 2 2 1 1 0 2 3 3 3 3 3 5 5 7 10 11 13 16 21 25 27 29 32 35 37 39 41 44 46 48 48 49 51 52 52 52 52 51 52 52 51 50 50 50 51 49 49 48
4 3 3 3 2 1 2 3 3 3 2 2 2 3 4 7 8 10 12 16 19 23 27 28 30 32 34 37 39 43 43 44 45 46 48 51 51 52 51 52 51 52 52 51 51 51 51 51 50
7 6 5 5 4 3 2 3 2 3 3 1 0 2 3 5 6 8 10 12 15 18 21 24 27 29 32 33 35 38 40 42 42 44 46 49 51 51 51 52 52 52 52 51 50 49 50 51 51
8 8 7 6 5 4 5 4 4 4 4 3 1 1 0 2 3 6 9 11 13 15 19 22 23 24 26 28 31 35 39 41 41 43 44 47 49 49 50 50 50 51 50 50 49 49 49 50 49
8 8 7 6 6 6 7 7 7 7 6 5 4 2 1 1 2 5 7 9 12 14 16 19 20 22 23 25 27 31 36 39 41 43 45 45 45 46 47 48 48 49 49 49 48 48 48 48 48
7 7 7 6 6 7 7 7 9 8 8 7 7 5 2 1 3 5 6 8 10 12 14 16 18 20 21 23 25 28 30 34 37 38 40 42 42 42 43 45 45 46 47 47 47 47 48 49 49
Wind_Direction
263 262 261 259 257 256 257 256 254 250 248 246 245 245 243 242 241 241 241 241 239 237 235 235 233 231 230 230 230 231 232 234 236 239 242 244 246 247 245 245 247 249 252 253 252 250 248 244 239
264 262 260 258 256 256 256 255 252 249 247 245 244 244 244 243 241 240 240 241 240 238 236 234 234 232 230 230 230 231 232 234 236 237 240 242 244 245 245 244 246 249 251 252 252 250 247 246 243
263 262 260 258 257 257 256 254 251 248 246 243 242 242 242 242 242 241 241 241 240 238 236 234 233 233 232 230 230 231 232 233 235 237 238 240 242 244 244 244 245 248 250 251 251 250 247 246 245
264 262 260 259 258 257 256 254 251 247 244 242 241 241 241 241 241 241 241 241 240 239 235 233 232 232 232 231 230 230 231 232 234 236 237 238 240 242 243 243 244 247 248 249 250 249 249 246 246
265 263 261 260 259 255 253 252 249 246 244 241 240 240 241 241 241 241 241 240 239 238 236 234 232 229 230 231 231 230 231 232 233 235 236 237 238 239 241 241 243 246 247 248 248 249 249 247 246
266 264 262 261 258 253 251 251 248 246 243 241 239 239 239 240 240 240 241 240 239 238 235 234 232 229 229 230 231 230 230 231 232 234 235 236 238 239 240 241 242 245 246 247 248 248 249 248 248
268 265 263 260 255 252 251 249 246 244 242 240 239 238 237 238 239 239 240 240 238 235 232 231 231 229 228 229 230 230 230 231 232 233 234 235 237 238 239 240 242 244 245 246 247 248 249 250 249
269 266 263 260 255 253 252 249 246 245 240 238 238 237 235 236 237 238 238 238 236 233 230 230 230 229 228 228 229 229 229 230 231 232 234 235 236 238 239 240 242 243 244 246 247 247 249 251 251
270 266 264 260 256 255 254 250 245 243 239 237 237 235 233 235 235 235 235 235 235 233 231 229 227 227 228 228 229 229 229 229 230 231 233 235 236 238 239 240 242 243 243 244 246 248 249 251 253
270 267 265 261 259 256 253 249 245 241 238 236 235 233 232 233 233 233 233 234 234 233 230 229 227 227 226 227 228 228 228 229 230 231 233 234 236 237 239 240 241 242 242 244 245 248 250 251 254
270 268 265 262 260 258 253 249 247 242 238 236 234 231 230 232 233 233 232 232 232 232 229 227 226 225 224 224 226 227 227 228 230 232 232 234 236 237 239 241 241 242 242 243 245 247 250 251 253
271 268 266 262 261 259 255 251 246 242 239 238 235 231 229 231 231 230 229 229 230 229 227 226 226 224 223 223 225 226 226 228 230 232 232 234 236 237 239 240 241 242 242 242 244 247 249 251 252
271 270 267 263 263 260 254 250 246 245 242 238 233 231 230 230 230 232 231 229 228 227 225 224 225 225 224 224 224 226 226 228 229 230 232 233 235 237 238 240 241 242 243 243 245 247 249 251 252
272 271 268 264 262 257 253 251 247 247 243 237 235 232 230 229 230 231 229 227 226 225 223 223 223 224 222 223 223 225 225 227 228 230 232 233 234 236 238 239 240 242 242 243 244 247 249 251 252
275 273 270 268 263 258 255 255 252 248 245 240 235 233 230 230 230 230 228 227 225 223 222 222 222 223 222 222 223 225 226 227 228 230 232 233 234 235 236 237 239 240 242 243 245 247 249 251 253
278 274 272 268 265 262 259 257 254 248 245 240 235 231 231 229 231 229 228 228 225 223 222 222 222 222 222 221 223 225 225 227 227 229 231 232 235 236 236 237 238 239 241 243 245 247 249 251 253
279 276 272 267 267 265 263 259 253 251 247 241 235 231 232 232 232 230 227 226 223 222 221 221 220 220 222 222 223 224 225 227 227 229 230 232 234 235 235 236 237 239 240 242 245 247 249 251 253
284 281 274 269 268 268 265 259 254 248 245 242 235 232 232 232 233 230 228 227 225 223 222 221 222 223 222 222 223 225 227 227 228 230 230 231 232 234 234 233 235 238 241 243 245 247 249 250 252
286 284 283 275 271 270 262 252 245 245 244 243 238 234 235 234 231 228 228 228 226 225 222 221 221 221 221 223 225 226 227 228 229 229 229 230 232 233 233 233 236 238 241 243 245 246 248 250 251
303 302 299 289 286 279 260 241 242 243 243 244 239 235 240 239 233 229 228 226 226 224 223 223 223 223 223 225 226 227 227 229 229 229 230 230 232 233 233 234 237 238 240 243 244 246 248 250 251
314 315 314 299 292 278 262 252 256 255 247 244 240 239 242 240 238 237 234 231 229 227 226 224 224 225 226 226 226 227 227 226 227 229 230 231 232 233 234 235 236 238 240 243 245 247 249 251 252
324 317 313 290 271 231 230 251 246 251 245 245 242 242 241 241 240 239 238 236 232 231 228 224 224 227 229 230 230 229 229 228 228 229 230 231 231 232 234 235 236 238 240 243 245 247 249 250 252
344 332 321 264 218 188 241 308 261 253 245 248 245 245 246 241 237 237 238 235 234 235 234 229 229 228 229 229 230 230 230 230 231 231 232 233 231 232 234 235 236 239 240 243 246 247 248 251 253
18 27 49 214 218 212 318 306 306 275 259 248 244 243 244 236 234 235 238 234 233 235 235 234 233 232 231 231 232 232 232 232 233 233 233 233 232 233 236 238 238 240 241 243 245 247 248 250 252
40 57 70 111 175 143 322 310 319 306 287 251 242 243 235 229 230 236 242 240 239 238 237 235 233 232 232 231 232 232 231 232 233 234 234 233 233 236 237 239 240 242 242 243 245 246 248 250 252
59 73 82 96 99 54 346 328 338 359 352 280 253 251 240 231 230 236 241 243 244 245 242 239 238 236 235 233 233 231 231 233 233 234 235 234 235 236 238 239 241 242 243 244 246 248 248 250 252
78 85 91 93 86 57 19 357 6 18 25 30 303 268 253 239 236 240 247 248 247 249 246 244 241 240 238 235 235 234 233 234 236 237 238 238 237 238 239 240 240 241 242 243 246 248 250 252 253
81 86 92 85 72 61 51 47 48 42 42 44 80 70 178 255 257 257 256 256 259 256 252 249 243 241 240 238 238 238 237 238 240 240 239 238 237 237 237 238 239 240 240 243 245 248 252 253 254
87 87 84 76 67 61 58 56 55 53 47 47 49 86 143 236 275 280 266 263 263 257 254 254 249 245 242 241 240 241 243 242 242 242 242 241 239 238 238 238 239 240 241 244 246 248 250 252 254
89 84 82 79 70 64 58 52 55 56 53 51 49 39 48 284 268 273 267 269 270 265 261 260 256 249 246 246 246 245 244 243 243 244 244 242 240 240 242 243 242 242 244 245 247 249 251 253 255
Height
5791 5791 5792 5792 5792 5792 5794 5800 5804 5809 5812 5815 5817 5819 5822 5826 5830 5835 5838 5840 5843 5846 5849 5852 5856 5859 5861 5864 5866 5869 5871 5873 5875 5876 5878 5879 5880 5881 5882 5882 5883 5883 5883 5884 5884 5884 5884 5884 5884
5780 5780 5781 5780 5780 5781 5786 5791 5794 5798 5802 5805 5808 5811 5814 5818 5822 5827 5830 5833 5837 5840 5844 5847 5851 5854 5857 5860 5863 5865 5867 5870 5872 5873 5875 5876 5878 5879 5880 5880 5881 5882 5882 5882 5882 5882 5883 5883 5883
5769 5768 5769 5768 5769 5772 5776 5780 5783 5787 5791 5795 5798 5801 5805 5810 5814 5819 5823 5826 5830 5834 5838 5841 5845 5849 5852 5855 5858 5861 5864 5866 5868 5870 5872 5874 5875 5876 5877 5878 5879 5880 5880 5881 5881 5881 5881 5882 5882
5758 5758 5757 5758 5759 5763 5765 5768 5771 5775 5779 5784 5788 5792 5796 5802 5807 5811 5815 5819 5823 5827 5831 5835 5839 5843 5847 5850 5853 5857 5860 5862 5865 5867 5869 5871 5872 5873 5875 5876 5877 5877 5878 5879 5879 5880 5880 5880 5880
5747 5746 5746 5746 5748 5752 5754 5756 5758 5762 5767 5772 5777 5782 5787 5793 5798 5803 5808 5812 5816 5820 5824 5829 5833 5837 5841 5844 5848 5852 5855 5858 5861 5863 5865 5867 5869 5870 5872 5873 5874 5875 5876 5876 5877 5878 5878 5878 5879
5736 5735 5735 5736 5738 5740 5742 5744 5747 5751 5755 5760 5765 5772 5778 5783 5788 5793 5798 5803 5808 5812 5816 5821 5826 5830 5834 5838 5842 5846 5849 5853 5856 5859 5861 5863 5865 5867 5869 5870 5871 5872 5873 5874 5875 5875 5876 5876 5877
5726 5724 5724 5725 5727 5729 5731 5733 5735 5740 5744 5749 5754 5760 5767 5772 5777 5782 5788 5794 5799 5803 5808 5813 5818 5823 5827 5831 5836 5840 5844 5847 5851 5854 5857 5859 5861 5863 5865 5866 5868 5869 5870 5871 5872 5873 5874 5874 5874
5715 5714 5714 5715 5716 5719 5720 5721 5724 5728 5733 5738 5742 5749 5756 5762 5767 5772 5778 5783 5789 5794 5800 5805 5810 5815 5820 5824 5829 5833 5837 5841 5845 5848 5852 5854 5857 5859 5861 5863 5864 5865 5867 5868 5869 5870 5871 5872 5872
5705 5706 5705 5705 5706 5708 5709 5710 5713 5716 5722 5726 5730 5738 5745 5751 5756 5762 5768 5773 5779 5785 5791 5797 5802 5807 5812 5817 5822 5826 5830 5835 5839 5842 5846 5849 5852 5855 5857 5859 5860 5862 5863 5864 5866 5867 5868 5869 5869
5697 5697 5697 5697 5697 5698 5699 5700 5703 5706 5711 5715 5720 5726 5734 5740 5746 5753 5758 5764 5770 5776 5782 5788 5793 5798 5803 5809 5813 5818 5823 5828 5832 5836 5840 5844 5847 5850 5852 5854 5856 5858 5859 5861 5862 5863 5864 5865 5866
5689 5689 5688 5688 5688 5689 5690 5691 5693 5696 5701 5705 5710 5716 5723 5729 5736 5742 5749 5754 5760 5766 5772 5778 5784 5789 5794 5800 5805 5810 5815 5820 5825 5830 5834 5838 5841 5844 5847 5849 5851 5853 5855 5857 5858 5859 5860 5861 5862
5682 5681 5680 5680 5680 5680 5682 5683 5686 5688 5693 5696 5700 5706 5712 5718 5725 5731 5737 5743 5749 5755 5762 5769 5775 5780 5785 5791 5797 5802 5807 5813 5818 5823 5827 5831 5835 5838 5842 5844 5846 5848 5850 5852 5853 5855 5856 5857 5858
5675 5674 5673 5673 5673 5673 5674 5676 5678 5682 5684 5687 5691 5696 5702 5708 5715 5720 5727 5733 5739 5744 5751 5759 5765 5771 5777 5783 5789 5794 5800 5805 5810 5815 5820 5824 5828 5832 5835 5838 5841 5843 5845 5847 5849 5850 5851 5853 5854
5669 5668 5667 5666 5666 5666 5667 5669 5671 5674 5675 5678 5682 5687 5692 5698 5705 5710 5716 5722 5728 5734 5741 5748 5754 5761 5767 5773 5780 5786 5792 5797 5802 5807 5812 5817 5821 5825 5829 5832 5834 5837 5839 5841 5843 5845 5846 5847 5849
5663 5663 5662 5660 5659 5660 5660 5663 5665 5665 5666 5670 5674 5678 5683 5689 5694 5699 5704 5711 5717 5723 5731 5736 5742 5750 5757 5764 5771 5777 5783 5788 5794 5799 5804 5809 5813 5817 5821 5824 5828 5830 5833 5835 5837 5839 5841 5842 5844
5658 5657 5657 5655 5654 5654 5656 5658 5658 5656 5658 5662 5666 5670 5675 5680 5685 5689 5694 5701 5706 5712 5720 5726 5733 5739 5746 5753 5760 5767 5774 5779 5785 5790 5796 5801 5805 5809 5813 5817 5821 5824 5826 5829 5831 5833 5835 5837 5838
5653 5653 5651 5651 5649 5648 5648 5650 5651 5650 5651 5655 5659 5663 5667 5671 5676 5680 5685 5690 5695 5701 5709 5715 5722 5729 5736 5743 5751 5757 5764 5770 5776 5781 5787 5792 5797 5801 5805 5809 5813 5816 5819 5822 5825 5827 5829 5831 5832
5650 5649 5647 5646 5645 5644 5644 5645 5646 5645 5646 5649 5652 5655 5659 5663 5668 5672 5676 5681 5686 5692 5699 5706 5713 5720 5726 5733 5740 5747 5754 5760 5766 5772 5778 5783 5788 5792 5797 5801 5805 5808 5812 5815 5817 5820 5822 5823 5825
5647 5646 5645 5644 5642 5642 5642 5642 5641 5641 5642 5644 5646 5650 5652 5656 5660 5664 5668 5673 5678 5684 5691 5697 5705 5711 5717 5723 5730 5737 5745 5751 5757 5763 5769 5774 5779 5783 5788 5792 5796 5800 5804 5807 5809 5812 5814 5816 5817
5645 5644 5643 5642 5641 5640 5640 5640 5640 5639 5640 5641 5643 5645 5647 5650 5653 5657 5661 5665 5670 5677 5683 5690 5696 5701 5708 5715 5721 5728 5735 5742 5749 5754 5759 5764 5769 5774 5779 5783 5788 5792 5795 5798 5801 5803 5806 5808 5810
5643 5642 5642 5641 5640 5639 5639 5640 5638 5638 5637 5638 5640 5641 5643 5645 5647 5650 5654 5658 5663 5669 5675 5682 5688 5694 5700 5707 5712 5718 5725 5732 5738 5744 5750 5756 5761 5765 5770 5775 5778 5782 5786 5789 5792 5795 5797 5800 5802
5642 5641 5640 5640 5639 5639 5639 5638 5638 5636 5636 5636 5637 5638 5639 5640 5642 5645 5648 5652 5657 5663 5669 5674 5680 5686 5692 5698 5703 5710 5716 5723 5729 5735 5741 5746 5751 5756 5761 5765 5769 5773 5776 5780 5783 5786 5788 5790 5792
5641 5640 5640 5639 5639 5639 5638 5637 5637 5635 5635 5635 5635 5636 5637 5638 5639 5641 5644 5648 5652 5657 5662 5668 5673 5678 5683 5689 5694 5700 5707 5714 5719 5725 5731 5736 5741 5746 5751 5755 5759 5763 5766 5770 5773 5776 5778 5781 5783
5640 5640 5639 5639 5638 5639 5638 5636 5636 5634 5633 5633 5633 5633 5634 5635 5636 5638 5641 5645 5649 5652 5657 5661 5666 5670 5674 5679 5685 5691 5697 5703 5709 5715 5721 5726 5731 5736 5740 5745 5749 5752 5756 5760 5763 5766 5768 5771 5773
5640 5640 5640 5638 5638 5638 5637 5635 5635 5633 5632 5631 5631 5631 5632 5633 5634 5636 5638 5642 5645 5648 5651 5655 5659 5662 5667 5671 5677 5682 5688 5694 5699 5705 5710 5715 5720 5725 5730 5734 5738 5742 5746 5749 5752 5755 5758 5760 5762
5639 5640 5640 5639 5638 5638 5636 5635 5635 5632 5631 5630 5630 5629 5630 5631 5632 5634 5635 5638 5640 5643 5646 5648 5651 5655 5659 5663 5668 5673 5679 5684 5689 5694 5699 5704 5709 5714 5718 5723 5727 5731 5735 5738 5741 5743 5746 5748 5751
5640 5640 5640 5640 5639 5638 5636 5635 5634 5632 5631 5630 5629 5628 5628 5629 5630 5632 5633 5635 5636 5638 5640 5642 5645 5648 5651 5656 5661 5666 5671 5675 5680 5685 5689 5694 5698 5702 5706 5710 5715 5719 5723 5726 5729 5731 5734 5737 5739
5642 5641 5641 5640 5639 5638 5637 5635 5634 5632 5631 5630 5629 5629 5629 5628 5629 5630 5631 5631 5632 5634 5636 5637 5639 5642 5645 5649 5654 5659 5663 5667 5671 5675 5679 5683 5687 5691 5694 5699 5703 5707 5711 5714 5717 5719 5722 5724 5726
5643 5642 5641 5640 5639 5638 5637 5638 5634 5632 5631 5630 5629 5629 5629 5628 5628 5628 5628 5629 5629 5630 5632 5633 5635 5637 5640 5643 5647 5651 5654 5658 5661 5665 5669 5672 5676 5680 5684 5687 5691 5695 5699 5702 5704 5707 5709 5712 5714
5643 5643 5642 5642 5641 5639 5637 5640 5634 5633 5631 5630 5629 5628 5627 5627 5627 5626 5626 5626 5626 5626 5627 5628 5629 5632 5635 5638 5641 5644 5646 5649 5652 5655 5658 5662 5666 5669 5673 5676 5680 5683 5686 5689 5692 5694 5696 5699 5701